TimeEST,TemperatureF,Dew PointF,Humidity,Sea Level PressureIn,VisibilityMPH,Wind Direction,Wind SpeedMPH,Gust SpeedMPH,PrecipitationIn,Events,Conditions,WindDirDegrees,DateUTC
12:53 AM,30.9,28.0,89,30.27,10.0,Calm,Calm,-,N/A,,Clear,0,2012-11-16 05:53:00
1:53 AM,30.0,27.0,88,30.28,10.0,Calm,Calm,-,N/A,,Clear,0,2012-11-16 06:53:00
2:53 AM,30.0,27.0,88,30.28,10.0,Calm,Calm,-,N/A,,Clear,0,2012-11-16 07:53:00
3:53 AM,28.0,26.1,92,30.28,8.0,Calm,Calm,-,N/A,,Partly Cloudy,0,2012-11-16 08:53:00
4:53 AM,28.9,28.0,96,30.28,8.0,Calm,Calm,-,N/A,,Partly Cloudy,0,2012-11-16 09:53:00
5:53 AM,26.1,24.1,92,30.30,8.0,Calm,Calm,-,N/A,,Partly Cloudy,0,2012-11-16 10:53:00
6:53 AM,26.1,25.0,96,30.32,8.0,Calm,Calm,-,N/A,,Partly Cloudy,0,2012-11-16 11:53:00
7:11 AM,26.6,24.8,93,30.32,9.0,Calm,Calm,-,N/A,,Scattered Clouds,0,2012-11-16 12:11:00
7:53 AM,28.0,27.0,96,30.34,9.0,Calm,Calm,-,N/A,Fog,Patches of Fog,0,2012-11-16 12:53:00
8:53 AM,34.0,30.0,85,30.35,10.0,Calm,Calm,-,N/A,,Scattered Clouds,0,2012-11-16 13:53:00
9:53 AM,37.9,32.0,79,30.35,10.0,Calm,Calm,-,N/A,,Scattered Clouds,0,2012-11-16 14:53:00
10:53 AM,45.0,34.0,65,30.35,10.0,Calm,Calm,-,N/A,,Scattered Clouds,0,2012-11-16 15:53:00
11:53 AM,50.0,32.0,50,30.32,10.0,Calm,Calm,-,N/A,,Scattered Clouds,0,2012-11-16 16:53:00
12:53 PM,53.1,30.9,43,30.30,10.0,Calm,Calm,-,N/A,,Scattered Clouds,0,2012-11-16 17:53:00
1:53 PM,54.0,28.9,38,30.28,10.0,Variable,3.5,-,N/A,,Scattered Clouds,0,2012-11-16 18:53:00
2:53 PM,55.9,27.0,33,30.27,10.0,Calm,Calm,-,N/A,,Scattered Clouds,0,2012-11-16 19:53:00
3:53 PM,55.9,27.0,33,30.28,10.0,North,5.8,-,N/A,,Scattered Clouds,350,2012-11-16 20:53:00
4:53 PM,53.1,26.1,35,30.30,10.0,North,5.8,-,N/A,,Scattered Clouds,10,2012-11-16 21:53:00
5:53 PM,45.0,27.0,49,30.32,10.0,North,6.9,-,N/A,,Scattered Clouds,360,2012-11-16 22:53:00
6:53 PM,44.1,26.1,49,30.33,10.0,North,3.5,-,N/A,,Partly Cloudy,10,2012-11-16 23:53:00
7:53 PM,44.1,27.0,51,30.35,10.0,Calm,Calm,-,N/A,,Clear,0,2012-11-17 00:53:00
8:53 PM,43.0,28.0,56,30.35,10.0,NE,3.5,-,N/A,,Clear,40,2012-11-17 01:53:00
9:53 PM,39.9,27.0,60,30.37,10.0,Calm,Calm,-,N/A,,Clear,0,2012-11-17 02:53:00
10:53 PM,37.0,27.0,67,30.37,10.0,Calm,Calm,-,N/A,,Clear,0,2012-11-17 03:53:00
11:53 PM,36.0,28.0,73,30.38,10.0,Calm,Calm,-,N/A,,Clear,0,2012-11-17 04:53:00